• Processing (Info)

  • MPEC 2023-P12 : 2014 HJ344

    The following Minor Planet Electronic Circular may be linked-to from your own Web pages, but must not otherwise be redistributed electronically.

    A form allowing access to any MPEC is at the bottom of this page.


    Read MPEC 2023-P11 Read MPEC 2023-P13


    M.P.E.C. 2023-P12                                Issued 2023 August 3, 16:25 UT
    
         The Minor Planet Electronic Circulars contain information on unusual
             minor planets, routine data on comets and natural satellites,
             and occasional editorial announcements.  They are published
        on behalf of Division F of the International Astronomical Union by the
              Minor Planet Center, Smithsonian Astrophysical Observatory,
                              Cambridge, MA 02138, U.S.A.
    			  
                 Prepared using the Tamkin Foundation Computer Network
    
                                  MPC@CFA.HARVARD.EDU
                URL https://www.minorplanetcenter.net/    ISSN 1523-6714
    
                                   2014 HJ344                                
    
    
    Observations:
         K14HY4J*ZC2014 04 30.41286 15 54 25.45 -00 57 51.9          22.2 w EP012F51
         K14HY4J ZC2014 04 30.42482 15 54 25.38 -00 57 51.6          22.1 w EP012F51
         K14HY4J ZC2014 04 30.43679 15 54 25.31 -00 57 51.2          22.4 w EP012F51
         K14HY4J ZC2014 04 30.44878 15 54 25.24 -00 57 51.0          22.2 w EP012F51
         K14HY4J ZC2014 05 20.4377  15 52 17.56 -00 48 25.1          22.0 w EP012F51
         K14HY4J ZC2014 05 20.47397 15 52 17.32 -00 48 24.4          21.9 w EP012F51
         K14HY4J ZC2014 06 29.36724 15 48 19.49 -00 44 26.8          22.4 w EP012F51
         K14HY4J ZC2014 06 29.3803  15 48 19.41 -00 44 26.9          22.4 w EP012F51
         K14HY4J ZC2014 06 29.39337 15 48 19.35 -00 44 26.9          22.3 w EP012F51
         K14HY4J ZC2014 06 29.40648 15 48 19.30 -00 44 27.1          22.3 w EP012F51
         K14HY4J ZC2016 06 05.36309 16 12 19.61 -01 45 47.1          22.3 w EP012F51
         K14HY4J ZC2016 06 05.37368 16 12 19.54 -01 45 47.0          22.3 w EP012F51
         K14HY4J ZC2016 06 05.38434 16 12 19.47 -01 45 46.8          22.4 w EP012F51
         K14HY4J ZC2016 06 05.39498 16 12 19.40 -01 45 46.7          22.3 w EP012F51
         K14HY4J ZC2016 07 06.3548  16 09 24.47 -01 47 12.0          22.1 w EP012F51
         K14HY4J ZC2016 07 06.36646 16 09 24.41 -01 47 12.2          22.4 w EP012F51
         K14HY4J ZC2016 07 06.37814 16 09 24.38 -01 47 12.6          22.2 w EP012F51
         K14HY4J ZC2016 07 06.3898  16 09 24.31 -01 47 12.5          22.0 w EP012F51
         K14HY4J ZC2016 07 31.2692  16 08 04.80 -01 57 03.9          22.5 w EP012F51
         K14HY4J ZC2016 07 31.28117 16 08 04.78 -01 57 04.3          22.5 w EP012F51
         K14HY4J ZC2016 07 31.29316 16 08 04.76 -01 57 04.8          22.5 w EP012F51
         K14HY4J ZC2016 07 31.30508 16 08 04.74 -01 57 05.2          22.5 w EP012F51
    
    Observer details:
    F51 Pan-STARRS 1, Haleakala.  Observers J. Bulger, T. Lowe, A. Schultz, I.
        Smith, T. Goggia, N. Primak, J. Thiel, S. Watters.  Measurers J.
        Kurlander, M. Holman, M. Payne, A. Heinze, P. Bernardinelli, M. Lackner.
        1.8-m Ritchey-Chretien + CCD.
    
    Orbital elements:
    2014 HJ344                                                                      
    Epoch 2023 Sept. 13.0 TT = JDT 2460200.5                Alexandersen            
    M  28.85279              (2000.0)            P               Q                  
    n   0.00401103     Peri.   54.19723     -0.86960582     +0.47270758             
    a  39.2312588      Node   153.13825     -0.48919601     -0.86399741             
    e   0.3028304      Incl.   18.39627     +0.06688030     -0.17336671             
    P 246              H    7.80          G   0.15           U   6                  
    Residuals in seconds of arc
    140430 F51  0.1-  0.2+    140629 F51  0.1-  0.1+    160706 F51  0.2+  0.2-
    140430 F51  0.0   0.1+    140629 F51  0.1+  0.0     160706 F51  0.1-  0.1+
    140430 F51  0.0   0.1+    160605 F51  0.0   0.1-    160731 F51  0.0   0.1+
    140430 F51  0.1+  0.1-    160605 F51  0.0   0.1-    160731 F51  0.0   0.1+
    140520 F51  0.0   0.1-    160605 F51  0.0   0.0     160731 F51  0.1+  0.0
    140520 F51  0.0   0.1-    160605 F51  0.0   0.0     160731 F51  0.1+  0.1-
    140629 F51  0.1+  0.1-    160706 F51  0.1-  0.1+
    140629 F51  0.1-  0.1-    160706 F51  0.2-  0.0
    
    Ephemeris:
    2014 HJ344               a,e,i = 39.23, 0.30, 18                 q = 27.3508
    Date    TT    R. A. (2000) Decl.     Delta      r    Elong.  Phase     V
    2023 07 04    17 21 25.6 -04 56 23  29.1800 30.0819   152.1     0.9    22.7
    ...
    2023 07 19    17 20 04.0 -04 59 58  29.3061 30.0923   140.1     1.2    22.7
    ...
    2023 07 27    17 19 27.5 -05 02 47  29.3945 30.0979   133.1     1.4    22.7
    ...
    2023 08 02    17 19 04.0 -05 05 17  29.4692 30.1020   127.8     1.5    22.7
    2023 08 03    17 19 00.5 -05 05 43  29.4823 30.1027   126.9     1.5    22.7
    2023 08 04    17 18 57.0 -05 06 10  29.4956 30.1034   126.0     1.6    22.7
    ...
    2023 08 10    17 18 38.6 -05 09 02  29.5786 30.1076   120.6     1.7    22.8
    ...
    2023 08 18    17 18 20.4 -05 13 15  29.6976 30.1131   113.3     1.8    22.8
    ...
    2023 09 02    17 18 07.7 -05 22 07  29.9387 30.1236    99.6     1.9    22.8
    
    M. P. C. Staff               (C) Copyright 2023 MPC           M.P.E.C. 2023-P12
    


    Read MPEC 2023-P11 Read MPEC 2023-P13


    MPEC number:

    Enter an MPEC number in one of the following forms:

    • 1997-B01 (the full form)
    • J97B01 (the packed version of the full form)
    • B01 (the abbreviated form)